Weather History for Bainbridge, GA

Change the Weather History Date:

Tuesday, February 12, 2013

  Actual Average (KMAI) Record (KMAI)
Temperature  
Mean Temperature 65 °F 54 °F  
Max Temperature 71 °F 66 °F 75 °F (2000)
Min Temperature 59 °F 43 °F 25 °F (2012)
Degree Days  
Heating Degree Days 0    
Month to date heating degree days  
Since 1 July heating degree days  
Cooling Degree Days 0    
Month to date cooling degree days  
Year to date cooling degree days  
Growing Degree Days 15 (Base 50)    
Moisture  
Dew Point 61 °F    
Average Humidity 96    
Maximum Humidity 100    
Minimum Humidity 88    
Precipitation  
Precipitation 0.00 in 0.17 in 1.70 in (2014)
Month to date precipitation 2.03  
Year to date precipitation 7.07  
Sea Level Pressure  
Sea Level Pressure 29.97 in    
Wind  
Wind Speed 7 mph (East)    
Max Wind Speed 16 mph    
Max Gust Speed 23 mph    
Visibility 9 miles    
Events Rain , Thunderstorm    
T = Trace of Precipitation, MM = Missing Value Source: NWS Daily Summary

Daily Weather History Graph

Daily Weather History Graph

Search for Another Location

Airport:

Trip Planner

Search our weather history database for the weather conditions in past years. The results will help you decide how hot, cold, wet, or windy it might be!

Date:

Astronomy

Feb. 12, 2013 Rise Set
Actual Time 7:21 AM EST 6:23 PM EST
Civil Twilight 6:57 AM EST 6:48 PM EST
Nautical Twilight 6:28 AM EST 7:17 PM EST
Astronomical Twilight 6:00 AM EST 7:45 PM EST
Moon 8:32 AM EST (2/12) 9:07 PM EST (2/12)
Length of Visible Light 11h 51m
Length of Day
11h 02m
Waxing Crescent, 7% of the Moon is Illuminated
Feb 12
Waxing Crescent
Feb 17
First Quarter
Feb 25
Full
Mar 4
Last Quarter
Mar 11
New

Hourly Weather History & Observations

Time (EST) Temp. Dew Point Humidity Pressure Visibility Wind Dir Wind Speed Gust Speed Precip Events Conditions
12:15 AM 59.0 °F 59.0 °F 100% 30.08 in 10.0 mi East 4.6 mph - N/A   Mostly Cloudy
12:35 AM 59.0 °F 59.0 °F 100% 30.08 in 10.0 mi Calm Calm - N/A Rain Rain
12:55 AM 59.0 °F 59.0 °F 100% 30.07 in 7.0 mi East 5.8 mph - N/A Rain Light Rain
1:15 AM 59.0 °F 59.0 °F 100% 30.07 in 7.0 mi East 4.6 mph - N/A Rain Rain
1:35 AM 59.0 °F 59.0 °F 100% 30.06 in 7.0 mi ESE 8.1 mph - N/A Rain Rain
1:55 AM 59.0 °F 59.0 °F 100% 30.06 in 10.0 mi SE 8.1 mph - N/A   Overcast
2:15 AM 59.0 °F 59.0 °F 100% 30.05 in 10.0 mi ESE 5.8 mph - N/A   Overcast
2:35 AM 59.0 °F 59.0 °F 100% 30.05 in 10.0 mi ENE 4.6 mph - N/A   Overcast
2:55 AM 59.0 °F 59.0 °F 100% 30.05 in 10.0 mi NE 4.6 mph - N/A Rain , Thunderstorm Light Thunderstorms and Rain
3:15 AM 59.0 °F 59.0 °F 100% 30.05 in 10.0 mi NNE 4.6 mph - N/A Rain Light Rain
3:35 AM 59.0 °F 59.0 °F 100% 30.04 in 10.0 mi NNE 4.6 mph - N/A Rain Light Rain
4:15 AM 59.0 °F 59.0 °F 100% 30.04 in 7.0 mi NE 3.5 mph - N/A   Drizzle
4:35 AM 59.0 °F 59.0 °F 100% 30.05 in 7.0 mi Calm Calm - N/A   Drizzle
4:55 AM 59.0 °F 59.0 °F 100% 30.05 in 7.0 mi ENE 3.5 mph - N/A   Drizzle
5:15 AM 59.0 °F 59.0 °F 100% 30.05 in 10.0 mi NNE 3.5 mph - N/A   Overcast
5:35 AM 59.0 °F 59.0 °F 100% 30.05 in 10.0 mi NE 3.5 mph - N/A   Overcast
5:55 AM 59.0 °F 59.0 °F 100% 30.03 in 10.0 mi East 5.8 mph - N/A   Overcast
6:35 AM 59.0 °F 59.0 °F 100% 30.06 in 10.0 mi NNE 3.5 mph - N/A   Overcast
6:55 AM 59.0 °F 59.0 °F 100% 30.06 in 10.0 mi North 8.1 mph - N/A   Overcast
7:15 AM 59.0 °F 59.0 °F 100% 30.07 in 5.0 mi North 6.9 mph - N/A   Overcast
7:35 AM 59.0 °F 59.0 °F 100% 30.07 in 4.0 mi NNE 5.8 mph - N/A   Overcast
7:55 AM 59.0 °F 59.0 °F 100% 30.06 in 3.0 mi NE 8.1 mph - N/A   Overcast
8:15 AM 59.0 °F 59.0 °F 100% 30.07 in 5.0 mi NNE 5.8 mph - N/A   Overcast
8:35 AM 59.0 °F 59.0 °F 100% 30.06 in 5.0 mi NE 5.8 mph - N/A   Overcast
8:55 AM 59.0 °F 59.0 °F 100% 30.07 in 7.0 mi NE 5.8 mph - N/A   Overcast
9:15 AM 59.0 °F 59.0 °F 100% 30.06 in 10.0 mi NE 10.4 mph - N/A   Overcast
9:35 AM 59.0 °F 59.0 °F 100% 30.07 in 10.0 mi NE 8.1 mph - N/A   Overcast
9:55 AM 59.0 °F 59.0 °F 100% 30.07 in 10.0 mi ENE 9.2 mph - N/A   Overcast
10:15 AM 59.0 °F 59.0 °F 100% 30.07 in 10.0 mi NE 9.2 mph - N/A   Overcast
10:35 AM 59.0 °F 59.0 °F 100% 30.06 in 7.0 mi ENE 8.1 mph - N/A   Overcast
10:55 AM 59.0 °F 59.0 °F 100% 30.05 in 10.0 mi ENE 13.8 mph - N/A   Overcast
11:15 AM 59.0 °F 57.2 °F 94% 30.05 in 10.0 mi NE 10.4 mph - N/A   Overcast
11:35 AM 60.8 °F 59.0 °F 94% 30.05 in 10.0 mi ENE 10.4 mph - N/A   Overcast
11:55 AM 60.8 °F 59.0 °F 94% 30.04 in 10.0 mi ENE 10.4 mph - N/A   Overcast
12:15 PM 60.8 °F 59.0 °F 94% 30.03 in 10.0 mi ENE 11.5 mph - N/A   Overcast
12:35 PM 62.6 °F 59.0 °F 88% 30.02 in 10.0 mi ENE 9.2 mph - N/A   Overcast
12:55 PM 62.6 °F 59.0 °F 88% 30.02 in 10.0 mi East 6.9 mph - N/A   Overcast
1:15 PM 62.6 °F 59.0 °F 88% 30.00 in 10.0 mi East 5.8 mph - N/A Rain Light Rain
1:35 PM 62.6 °F 59.0 °F 88% 29.99 in 10.0 mi East 8.1 mph - N/A Rain Light Rain
1:55 PM 62.6 °F 59.0 °F 88% 29.98 in 10.0 mi East 5.8 mph - N/A   Overcast
2:15 PM 62.6 °F 60.8 °F 94% 29.96 in 10.0 mi East 5.8 mph - N/A Rain , Thunderstorm Light Thunderstorms and Rain
2:35 PM 62.6 °F 60.8 °F 94% 29.97 in 10.0 mi NNE 6.9 mph - N/A   Overcast
2:55 PM 62.6 °F 60.8 °F 94% 29.95 in 10.0 mi NE 6.9 mph - N/A   Overcast
3:15 PM 62.6 °F 59.0 °F 88% 29.93 in 10.0 mi ENE 10.4 mph - N/A   Overcast
3:35 PM 62.6 °F 59.0 °F 88% 29.92 in 10.0 mi ENE 13.8 mph - N/A   Overcast
3:55 PM 62.6 °F 59.0 °F 88% 29.90 in 10.0 mi East 9.2 mph - N/A   Overcast
4:15 PM 62.6 °F 59.0 °F 88% 29.90 in 10.0 mi East 8.1 mph - N/A   Overcast
4:35 PM 62.6 °F 59.0 °F 88% 29.89 in 10.0 mi East 5.8 mph - N/A   Overcast
4:55 PM 62.6 °F 60.8 °F 94% 29.87 in 10.0 mi East 6.9 mph - N/A   Overcast
5:15 PM 62.6 °F 60.8 °F 94% 29.87 in 7.0 mi East 5.8 mph - N/A Rain Light Rain
5:35 PM 62.6 °F 60.8 °F 94% 29.85 in 10.0 mi ESE 8.1 mph - N/A   Overcast
6:15 PM 62.6 °F 60.8 °F 94% 29.80 in 10.0 mi ESE 10.4 mph - N/A Thunderstorm Overcast
6:35 PM 62.6 °F 60.8 °F 94% 29.78 in 7.0 mi SE 9.2 mph - N/A Thunderstorm Overcast
6:55 PM 64.4 °F 62.6 °F 94% 29.79 in 7.0 mi South 11.5 mph - N/A Rain , Thunderstorm Light Thunderstorms and Rain
7:15 PM 68.0 °F 66.2 °F 94% 29.80 in 7.0 mi South 15.0 mph 20.7 mph N/A   Overcast
7:35 PM 69.8 °F 68.0 °F 94% 29.80 in 7.0 mi SSW 11.5 mph 17.3 mph N/A Rain Light Rain
7:55 PM 71.6 °F 69.8 °F 94% 29.81 in 7.0 mi SSW 11.5 mph 16.1 mph N/A Rain , Thunderstorm Rain
8:15 PM 71.6 °F 69.8 °F 94% 29.82 in 7.0 mi SSW 13.8 mph 18.4 mph N/A Rain Light Rain
8:35 PM 71.6 °F 69.8 °F 94% 29.82 in 10.0 mi SSW 12.7 mph 19.6 mph N/A   Mostly Cloudy
9:15 PM 71.6 °F 69.8 °F 94% 29.81 in 10.0 mi SSW 13.8 mph 20.7 mph N/A   Mostly Cloudy
9:35 PM 71.6 °F 69.8 °F 94% 29.81 in 7.0 mi SSW 15.0 mph 20.7 mph N/A Rain Rain
9:55 PM 71.6 °F 69.8 °F 94% 29.82 in 7.0 mi SSW 15.0 mph 19.6 mph N/A   Mostly Cloudy
10:15 PM 71.6 °F 69.8 °F 94% 29.82 in 10.0 mi SW 13.8 mph 17.3 mph N/A   Mostly Cloudy
10:35 PM 71.6 °F 69.8 °F 94% 29.81 in 7.0 mi SW 13.8 mph - N/A Thunderstorm Drizzle
10:55 PM 71.6 °F 69.8 °F 94% 29.81 in 7.0 mi SW 16.1 mph 21.9 mph N/A Rain Light Rain
11:15 PM 71.6 °F 69.8 °F 94% 29.81 in 10.0 mi SW 13.8 mph 19.6 mph N/A   Scattered Clouds
11:35 PM 71.6 °F 69.8 °F 94% 29.80 in 10.0 mi SW 11.5 mph 20.7 mph N/A Rain Light Rain
11:55 PM 71.6 °F 69.8 °F 94% 29.80 in 10.0 mi SW 11.5 mph 23.0 mph N/A   Mostly Cloudy